{"data":{"norad_id":62954,"epoch":"2026-09-21T16:31:54.880032Z","epoch_age_seconds":62692,"freshness":"FRESH","line1":"1 62954U 25029G   26264.68882963  .00022267  00000+0  66796-3 0  9999","line2":"2 62954  53.1609  35.8406 0000924  74.5451 285.5654 15.34411044 91427","mean_motion":15.34411044,"eccentricity":9.24e-5,"inclination_deg":53.1609,"raan_deg":35.8406,"arg_perigee_deg":74.5451,"mean_anomaly_deg":285.5654,"bstar":0.00066796,"rev_number":9142,"period_min":93.847082607416,"perigee_km":462.0383247034,"apogee_km":463.30250591375,"semimajor_km":6840.8074153086,"source":"CELESTRAK","updated_at":"2026-09-22T09:00:49.712197Z"}}